| time (UTC) | temp F | wind direction | speed knots | gust knots | rain 1hr in | rain 24hr in | rain mn in | humidity % | barometer mb |
| 20260509201310 | 60 | 289 | 0.9 | 8.7 | 0.00 | 0.00 | 0.00 | 43 | 1016.5 |
| 20260509195308 | 59 | 1 | 0.0 | 5.2 | 0.00 | 0.00 | 0.00 | 45 | 1016.1 |
| 20260509193309 | 60 | 256 | 0.0 | 7.0 | 0.00 | 0.00 | 0.00 | 44 | 1016.2 |
| 20260509191309 | 60 | 163 | 0.9 | 7.8 | 0.00 | 0.00 | 0.00 | 47 | 1015.5 |
| 20260509185309 | 59 | 331 | 0.0 | 4.3 | 0.00 | 0.00 | 0.00 | 48 | 1015.6 |
| 20260509183308 | 59 | 94 | 1.7 | 5.2 | 0.00 | 0.00 | 0.00 | 49 | 1015.3 |
| 20260509181309 | 59 | 127 | 0.0 | 5.2 | 0.00 | 0.00 | 0.00 | 50 | 1015.0 |
| 20260509175308 | 59 | 33 | 0.0 | 4.3 | 0.00 | 0.00 | 0.00 | 54 | 1015.1 |
| 20260509173308 | 59 | 12 | 0.0 | 5.2 | 0.00 | 0.00 | 0.00 | 58 | 1015.0 |
| 20260509171308 | 59 | 10 | 0.9 | 4.3 | 0.00 | 0.00 | 0.00 | 70 | 1014.8 |
| 20260509165309 | 60 | 116 | 0.9 | 5.2 | 0.00 | 0.00 | 0.00 | 70 | 1014.7 |
| 20260509163309 | 60 | 334 | 1.7 | 5.2 | 0.00 | 0.00 | 0.00 | 70 | 1014.7 |
| 20260509161310 | 58 | 355 | 0.0 | 5.2 | 0.00 | 0.00 | 0.00 | 76 | 1014.4 |
| 20260509155309 | 57 | 7 | 1.7 | 6.1 | 0.00 | 0.00 | 0.00 | 81 | 1014.4 |
| 20260509153309 | 57 | 1 | 2.6 | 5.2 | 0.00 | 0.00 | 0.00 | 84 | 1014.4 |
| 20260509151310 | 56 | 16 | 3.5 | 5.2 | 0.00 | 0.00 | 0.00 | 84 | 1014.6 |
| 20260509145309 | 56 | 10 | 0.9 | 3.5 | 0.00 | 0.00 | 0.00 | 83 | 1014.7 |
| 20260509143309 | 56 | 1 | 2.6 | 4.3 | 0.00 | 0.00 | 0.00 | 83 | 1014.6 |
| 20260509141309 | 55 | 1 | 1.7 | 3.5 | 0.00 | 0.00 | 0.00 | 81 | 1014.3 |
| 20260509135309 | 56 | 0 | 0.0 | 0.0 | 0.00 | 0.00 | 0.00 | 80 | 1014.1 |
| 20260509133309 | 56 | 0 | 0.0 | 0.0 | 0.00 | 0.00 | 0.00 | 79 | 1013.9 |
| 20260509131308 | 56 | 0 | 0.0 | 0.0 | 0.00 | 0.00 | 0.00 | 79 | 1013.9 |
| 20260509125308 | 57 | 0 | 0.0 | 0.0 | 0.00 | 0.00 | 0.00 | 79 | 1013.9 |
| 20260509123310 | 57 | 229 | 0.0 | 2.6 | 0.00 | 0.00 | 0.00 | 78 | 1013.7 |
| 20260509121309 | 58 | 53 | 0.0 | 0.0 | 0.00 | 0.00 | 0.00 | 76 | 1013.5 |
| 20260509115310 | 58 | 0 | 0.0 | 0.0 | 0.00 | 0.00 | 0.00 | 75 | 1013.6 |
| 20260509113309 | 59 | 0 | 0.0 | 0.0 | 0.00 | 0.00 | 0.00 | 72 | 1013.5 |
| 20260509111309 | 60 | 1 | 0.0 | 0.9 | 0.00 | 0.00 | 0.00 | 71 | 1013.2 |
| 20260509105309 | 61 | 0 | 0.0 | 0.0 | 0.00 | 0.00 | 0.00 | 67 | 1013.1 |
| 20260509103308 | 63 | 339 | 0.0 | 1.7 | 0.00 | 0.00 | 0.00 | 64 | 1012.7 |
| 20260509101308 | 64 | 317 | 0.0 | 0.9 | 0.00 | 0.00 | 0.00 | 61 | 1012.5 |
| 20260509095310 | 65 | 1 | 0.0 | 2.6 | 0.00 | 0.00 | 0.00 | 59 | 1012.3 |
| 20260509093309 | 67 | 290 | 0.0 | 2.6 | 0.00 | 0.00 | 0.00 | 57 | 1012.1 |
| 20260509091309 | 68 | 323 | 0.0 | 5.2 | 0.00 | 0.00 | 0.00 | 55 | 1011.9 |
| 20260509085307 | 68 | 317 | 0.9 | 3.5 | 0.00 | 0.00 | 0.00 | 54 | 1011.6 |
| 20260509083308 | 69 | 281 | 0.9 | 4.3 | 0.00 | 0.00 | 0.00 | 55 | 1011.1 |
| 20260509081309 | 70 | 311 | 1.7 | 6.1 | 0.00 | 0.00 | 0.00 | 55 | 1010.8 |
| 20260509075308 | 71 | 292 | 2.6 | 7.8 | 0.00 | 0.00 | 0.00 | 50 | 1010.7 |